STARLINK-36853, 68097

Orbit data source: Space-Track

STARLINK-36853, 68097 is a payload satellite owned by SpaceX/Seattle (US) in LEO that was launched on Wed, 04 Mar 2026 UTC via an FALCON 9 launch vehicle from the Air Force Eastern Test Range (AFETR). Payload-class satellites include a variety of spacecraft equipped with specific instruments for various scientific and technological missions. These include communications satellites like Starlink; space stations such as the ISS; scientific satellites like the Hubble; Earth observation satellites from companies like Planet Labs, Umbra, and HawkEye 360; GPS; miniature CubeSats for education and research; and military/defense satellites.

Loading next visibility...
Identifier
68097, 2026-042AE
Orbit
LEO
Country
Flag of USUS
Related business
Manufacturer
SpaceX/Seattle
Mission
Operational Commercial Communications
Bus & Motor
STARLINK V2MO, Unknown motor
Mass
575 kg wet, ~530 kg dry
Launch date (UTC)
2026-03-04 (2 months ago)
Launch vehicle
FALCON 9
Launch site
Air Force Eastern Test Range (AFETR)
Object type
Payload
Rocket body
Debris
Shape & HBR
Box + 2 Pan, 17.7 m
Radar Cross Section
36.964 m²

Expand to show TLE details & history
Last TLE update: 16 hours ago

TLE from 16 hours ago
0 STARLINK-36853
1 68097U 26042AE  26118.94539522  .00050793  00000-0  91484-3 0  9994
2 68097  53.1591 305.7098 0000949  76.2737 283.8377 15.49325790  9981
Epoch: 2026-04-28T22:41Z
TLE epoch observation values (Epoch: 2026-04-28T22:41:22.147Z)
Latitude
-0.00005°
Longitude
108.45406°
Altitude
419.45 km
Speed
7.661 km/s
True Right ascension
20h 22m 50s
True Declination
0° 00' 00"
Sunlit
Object was in daylight at epoch
Visualization orbit readout
Latitude
Unknown
Longitude
Unknown
Altitude
Unknown
Speed
Unknown
Apparent Right ascension
Unknown
Apparent Declination
Unknown
Sunlit
N/A
Visualization observer readout
Local Sidereal Time
21:50:21
Azimuth
Unknown
Elevation
Unknown
Doppler factor
Unknown
Orbital elements
Apogee altitude
419.601 km
Perigee altitude
418.311 km
Semi-major axis
6,797.093 km
Eccentricity
0.00009
Inclination
53.1591°
RAAN
305.7098°
Arg. of periapsis
76.2737°
True anomaly
283.82714°
Mean anomaly
283.8377°
Eccentric anomaly
283.83242°
Mean motion
3.8731 °/min
Orbital period
92.95 mins
BSTAR
0.00091484
Loading maneuver chart data...
Computing Atmospheric mass density...
Loading historical data...
Loading historical data...
Loading historical data...
Loading historical data...
Loading historical data...
Loading historical data...
Loading historical data...

Documentation

Showing up to 5 results
|